Location: Kelowna
(49.8880°N, 119.4960°W)
Time: 20:42:08
(UTC-07:00)

AO-27 - Pass Details

Date: 14 August 2024
Orbit: 783 x 796 km, 98.8° (Epoch: 19 September)

Event Time Altitude Azimuth Distance (km) Brightness Sun altitude
Exits shadow 20:45:19 - 145° (SE) 3,022 10.1 -5.0°
Reaches altitude 10° 20:47:02 10° 141° (SE) 2,360 9.6 -5.3°
Maximum altitude 20:52:02 50° 67° (ENE) 1,014 8.0 -6.0°
Drops below altitude 10° 20:57:05 10° 354° (N) 2,379 10.7 -6.7°
Sets 20:59:29 0° 349° (N) 3,314 11.6 -7.0°
